When you browse on this site, cookies collect data to enhance your experience and personalize the content and advertising you see.
Visit our Privacy Policy to learn more. By continuing to use the site, you agree to this use of cookies and data.
  • In Hungary
  • List of Countries
  • For 7 days
  • Water Temperature
  • Weather Map
  • News
  • Weather Widgets
  • user-avatar
    Login

    Hourly Weather Romanovskiy

    Today, 24 October, Thursday

    Time Temperature Precipitation Wind Pressure Humidity
    00:00 +13°C° 0 mm 2 mps 759 mmHg 55%
    01:00 +13°C° 0 mm 2 mps 758 mmHg 56%
    02:00 +13°C° 0 mm 2 mps 758 mmHg 56%
    03:00 +13°C° 0 mm 2 mps 758 mmHg 56%
    04:00 +13°C° 0 mm 2 mps 758 mmHg 57%
    05:00 +12°C° 0 mm 1 mps 758 mmHg 59%
    06:00 +12°C° 0 mm 1 mps 759 mmHg 60%
    07:00 +13°C° 0 mm 2 mps 759 mmHg 57%
    08:00 +14°C° 0 mm 2 mps 759 mmHg 55%
    09:00 +14°C° 0 mm 3 mps 759 mmHg 52%
    10:00 +16°C° 0 mm 3 mps 759 mmHg 47%
    11:00 +18°C° 0 mm 2 mps 758 mmHg 41%
    12:00 +19°C° 0 mm 2 mps 758 mmHg 36%
    13:00 +20°C° 0 mm 2 mps 758 mmHg 35%
    14:00 +20°C° 0 mm 2 mps 758 mmHg 34%
    15:00 +21°C° 0 mm 2 mps 758 mmHg 33%
    16:00 +19°C° 0 mm 3 mps 757 mmHg 38%
    17:00 +18°C° 0 mm 3 mps 757 mmHg 42%
    18:00 +16°C° 0 mm 3 mps 757 mmHg 47%
    19:00 +16°C° 0 mm 3 mps 757 mmHg 47%
    20:00 +14°C° 0 mm 3 mps 758 mmHg 48%
    21:00 +14°C° 0 mm 3 mps 758 mmHg 49%
    22:00 +14°C° 0 mm 3 mps 757 mmHg 50%
    23:00 +13°C° 0 mm 3 mps 757 mmHg 50%

    Tomorrow, 25 October, Friday

    Time Temperature Precipitation Wind Pressure Humidity
    00:00 +13°C° 0 mm 3 mps 757 mmHg 51%
    01:00 +13°C° 0 mm 3 mps 757 mmHg 51%
    02:00 +12°C° 0 mm 3 mps 757 mmHg 52%
    03:00 +12°C° 0 mm 3 mps 757 mmHg 52%
    04:00 +12°C° 0 mm 3 mps 757 mmHg 52%
    05:00 +12°C° 0 mm 3 mps 757 mmHg 53%
    06:00 +12°C° 0 mm 3 mps 757 mmHg 53%
    07:00 +13°C° 0 mm 4 mps 757 mmHg 53%
    08:00 +14°C° 0 mm 4 mps 757 mmHg 52%
    09:00 +14°C° 0 mm 5 mps 757 mmHg 52%
    10:00 +16°C° 0 mm 5 mps 757 mmHg 50%
    11:00 +17°C° 0 mm 6 mps 757 mmHg 47%
    12:00 +19°C° 0 mm 6 mps 757 mmHg 45%
    13:00 +20°C° 0 mm 6 mps 757 mmHg 43%
    14:00 +20°C° 0 mm 6 mps 756 mmHg 41%
    15:00 +20°C° 0 mm 5 mps 756 mmHg 39%
    16:00 +19°C° 0 mm 5 mps 756 mmHg 43%
    17:00 +18°C° 0 mm 4 mps 756 mmHg 47%
    18:00 +15°C° 0 mm 4 mps 756 mmHg 50%
    19:00 +15°C° 0 mm 4 mps 756 mmHg 51%
    20:00 +15°C° 0 mm 4 mps 756 mmHg 52%
    21:00 +14°C° 0 mm 4 mps 757 mmHg 52%
    22:00 +14°C° 0 mm 4 mps 757 mmHg 53%
    23:00 +13°C° 0 mm 4 mps 757 mmHg 53%

    Day after tomorrow, 26 October, Saturday

    Time Temperature Precipitation Wind Pressure Humidity
    00:00 +13°C° 0 mm 4 mps 757 mmHg 53%
    01:00 +12°C° 0 mm 4 mps 757 mmHg 55%
    02:00 +12°C° 0 mm 4 mps 757 mmHg 57%
    03:00 +11°C° 0 mm 4 mps 757 mmHg 59%
    04:00 +11°C° 0 mm 4 mps 757 mmHg 61%
    05:00 +10°C° 0 mm 4 mps 757 mmHg 63%
    06:00 +10°C° 0 mm 4 mps 757 mmHg 65%
    07:00 +11°C° 0 mm 4 mps 757 mmHg 62%
    08:00 +12°C° 0 mm 4 mps 758 mmHg 60%
    09:00 +13°C° 0 mm 5 mps 758 mmHg 57%
    10:00 +14°C° 0 mm 5 mps 758 mmHg 53%
    11:00 +16°C° 0 mm 5 mps 758 mmHg 49%
    12:00 +17°C° 0 mm 5 mps 758 mmHg 45%
    13:00 +19°C° 0 mm 4 mps 758 mmHg 45%
    14:00 +19°C° 0 mm 4 mps 758 mmHg 44%
    15:00 +19°C° 0 mm 4 mps 757 mmHg 44%
    16:00 +18°C° 0 mm 4 mps 757 mmHg 48%
    17:00 +16°C° 0 mm 3 mps 757 mmHg 52%
    18:00 +14°C° 0 mm 3 mps 757 mmHg 56%
    19:00 +14°C° 0 mm 3 mps 757 mmHg 56%
    20:00 +13°C° 0 mm 3 mps 758 mmHg 57%
    21:00 +14°C° 0 mm 2 mps 758 mmHg 57%
    22:00 +13°C° 0 mm 2 mps 758 mmHg 60%
    23:00 +13°C° 0 mm 2 mps 757 mmHg 63%

    , 27 October, Sunday

    Time Temperature Precipitation Wind Pressure Humidity
    00:00 +13°C° 0 mm 2 mps 757 mmHg 66%
    01:00 +12°C° 0 mm 2 mps 757 mmHg 71%
    02:00 +12°C° 0 mm 2 mps 757 mmHg 76%
    03:00 +12°C° 0 mm 1 mps 757 mmHg 81%
    04:00 +12°C° 0 mm 1 mps 757 mmHg 84%
    05:00 +11°C° 0 mm 1 mps 757 mmHg 86%
    06:00 +11°C° 0 mm 1 mps 757 mmHg 88%
    07:00 +12°C° 0 mm 1 mps 757 mmHg 84%
    08:00 +13°C° 0 mm 1 mps 757 mmHg 79%
    09:00 +15°C° 0 mm 1 mps 757 mmHg 75%
    10:00 +16°C° 0 mm 1 mps 757 mmHg 67%
    11:00 +18°C° 0 mm 2 mps 757 mmHg 60%
    12:00 +20°C° 0 mm 2 mps 757 mmHg 53%
    13:00 +20°C° 0 mm 3 mps 757 mmHg 50%
    14:00 +20°C° 0 mm 3 mps 757 mmHg 48%
    15:00 +21°C° 0 mm 3 mps 756 mmHg 45%
    16:00 +19°C° 0 mm 3 mps 756 mmHg 48%
    17:00 +18°C° 0 mm 3 mps 756 mmHg 51%
    18:00 +17°C° 0 mm 2 mps 756 mmHg 54%
    19:00 +16°C° 0 mm 2 mps 756 mmHg 55%
    20:00 +16°C° 0 mm 2 mps 756 mmHg 57%
    21:00 +15°C° 0 mm 2 mps 756 mmHg 58%
    22:00 +14°C° 0 mm 2 mps 756 mmHg 59%
    23:00 +14°C° 0 mm 2 mps 756 mmHg 60%

    27 October, Sunday

    Time Temperature Precipitation Wind Pressure Humidity
    00:00 +13°C° 0 mm 2 mps 757 mmHg 66%
    01:00 +12°C° 0 mm 2 mps 757 mmHg 71%
    02:00 +12°C° 0 mm 2 mps 757 mmHg 76%
    03:00 +12°C° 0 mm 1 mps 757 mmHg 81%
    04:00 +12°C° 0 mm 1 mps 757 mmHg 84%
    05:00 +11°C° 0 mm 1 mps 757 mmHg 86%
    06:00 +11°C° 0 mm 1 mps 757 mmHg 88%
    07:00 +12°C° 0 mm 1 mps 757 mmHg 84%
    08:00 +13°C° 0 mm 1 mps 757 mmHg 79%
    09:00 +15°C° 0 mm 1 mps 757 mmHg 75%
    10:00 +16°C° 0 mm 1 mps 757 mmHg 67%
    11:00 +18°C° 0 mm 2 mps 757 mmHg 60%
    12:00 +20°C° 0 mm 2 mps 757 mmHg 53%
    13:00 +20°C° 0 mm 3 mps 757 mmHg 50%
    14:00 +20°C° 0 mm 3 mps 757 mmHg 48%
    15:00 +21°C° 0 mm 3 mps 756 mmHg 45%
    16:00 +19°C° 0 mm 3 mps 756 mmHg 48%
    17:00 +18°C° 0 mm 3 mps 756 mmHg 51%
    18:00 +17°C° 0 mm 2 mps 756 mmHg 54%
    19:00 +16°C° 0 mm 2 mps 756 mmHg 55%
    20:00 +16°C° 0 mm 2 mps 756 mmHg 57%
    21:00 +15°C° 0 mm 2 mps 756 mmHg 58%
    22:00 +14°C° 0 mm 2 mps 756 mmHg 59%
    23:00 +14°C° 0 mm 2 mps 756 mmHg 60%

    28 October, Monday

    Time Temperature Precipitation Wind Pressure Humidity
    00:00 +13°C° 0 mm 2 mps 756 mmHg 61%
    01:00 +13°C° 0 mm 2 mps 756 mmHg 62%
    02:00 +13°C° 0 mm 2 mps 756 mmHg 62%
    03:00 +12°C° 0 mm 2 mps 755 mmHg 63%
    04:00 +12°C° 0 mm 2 mps 755 mmHg 63%
    05:00 +12°C° 0 mm 2 mps 755 mmHg 64%
    06:00 +10°C° 0 mm 2 mps 755 mmHg 65%
    07:00 +11°C° 0 mm 3 mps 755 mmHg 62%
    08:00 +12°C° 0 mm 3 mps 755 mmHg 58%
    09:00 +14°C° 0 mm 3 mps 755 mmHg 55%
    10:00 +16°C° 0 mm 3 mps 755 mmHg 50%
    11:00 +18°C° 0 mm 4 mps 755 mmHg 44%
    12:00 +20°C° 0 mm 4 mps 755 mmHg 39%
    13:00 +20°C° 0 mm 4 mps 754 mmHg 39%
    14:00 +21°C° 0 mm 4 mps 754 mmHg 39%
    15:00 +21°C° 0 mm 4 mps 753 mmHg 39%
    16:00 +19°C° 0 mm 4 mps 753 mmHg 44%
    17:00 +18°C° 0 mm 3 mps 753 mmHg 49%
    18:00 +16°C° 0 mm 3 mps 753 mmHg 55%
    19:00 +16°C° 0 mm 3 mps 753 mmHg 57%
    20:00 +15°C° 0 mm 2 mps 753 mmHg 59%
    21:00 +15°C° 0 mm 2 mps 753 mmHg 61%
    22:00 +14°C° 0 mm 2 mps 753 mmHg 62%
    23:00 +13°C° 0 mm 2 mps 753 mmHg 63%

    29 October, Tuesday

    Time Temperature Precipitation Wind Pressure Humidity
    00:00 +13°C° 0 mm 2 mps 753 mmHg 64%
    01:00 +13°C° 0 mm 2 mps 753 mmHg 66%
    02:00 +12°C° 0 mm 2 mps 752 mmHg 67%
    03:00 +12°C° 0 mm 2 mps 752 mmHg 68%
    04:00 +12°C° 0 mm 2 mps 752 mmHg 69%
    05:00 +12°C° 0 mm 2 mps 752 mmHg 69%
    06:00 +12°C° 0 mm 1 mps 752 mmHg 70%
    07:00 +12°C° 0 mm 1 mps 752 mmHg 67%
    08:00 +13°C° 0 mm 1 mps 753 mmHg 64%
    09:00 +14°C° 0 mm 1 mps 753 mmHg 61%
    10:00 +16°C° 0 mm 1 mps 753 mmHg 57%
    11:00 +18°C° 0 mm 1 mps 753 mmHg 53%
    12:00 +19°C° 0 mm 1 mps 753 mmHg 49%
    13:00 +20°C° 0 mm 1 mps 753 mmHg 47%
    14:00 +20°C° 0 mm 1 mps 752 mmHg 45%
    15:00 +21°C° 0 mm 1 mps 752 mmHg 43%
    16:00 +19°C° 0 mm 1 mps 752 mmHg 48%
    17:00 +17°C° 0 mm 2 mps 752 mmHg 53%
    18:00 +15°C° 0 mm 2 mps 752 mmHg 58%
    19:00 +15°C° 0 mm 2 mps 752 mmHg 61%
    20:00 +14°C° 0 mm 2 mps 753 mmHg 64%
    21:00 +14°C° 0 mm 2 mps 753 mmHg 66%
    22:00 +13°C° 0 mm 2 mps 753 mmHg 68%
    23:00 +13°C° 0 mm 2 mps 753 mmHg 69%
    Show more